Regional Weather Roundup
Issued by NWS Sioux Falls, SD

Home | Current Version | Previous Version | Text Only | Print | Product List | Glossary Off
Versions: 1 2 3 4 5 6 7 8 9 10 11 12 13 14 15 16 17 18 19 20 21 22 23 24 25 26 27 28 29 30 31 32 33 34 35 36 37 38 39 40 41 42 43 44 45 46 47 48 49 50

000
ASUS43 KFSD 192210
RWRFSD

WEATHER ROUNDUP FOR SE SOUTH DAKOTA/SW MINNESOTA/NW IOWA
NATIONAL WEATHER SERVICE SIOUX FALLS SD
400 PM CST SUN NOV 19 2017

NOTE: "FAIR" INDICATES FEW OR NO CLOUDS BELOW 12,000 FEET WITH NO
SIGNIFICANT WEATHER AND OR OBSTRUCTIONS TO VISIBILITY.


SDZ038>040-050-052>070-192300-
SOUTHEAST SOUTH DAKOTA

CITY           SKY/WX    TMP DP  RH WIND       PRES   REMARKS
BROOKINGS      CLOUDY    46  24  42 SW10      29.87S
CHAMBERLAIN    CLOUDY    56  28  34 S6        29.85F
HURON          CLOUDY    49  23  36 SW6       29.85S
MADISON        FAIR      46  23  39 SW10      29.87F
MITCHELL       CLOUDY    52  25  35 SW6       29.87F
SIOUX FALLS    CLOUDY    51  26  37 SW7       29.89F
WINNER         FAIR      59  17  19 W5        29.86F
YANKTON        CLOUDY    54  26  34 SW7       29.91S
$$

MNZ071-072-080-081-089-090-097-098-192300-
SOUTHWEST MINNESOTA

CITY           SKY/WX    TMP DP  RH WIND       PRES   REMARKS
FAIRMONT       CLEAR     46  26  45 SW8       29.93F
JACKSON        CLEAR     46  23  39 SW10G16   29.92F
LUVERNE        CLOUDY    46  23  39 SW7       29.90F
MARSHALL       CLEAR     47  23  38 SW13      29.87F
MONTEVIDEO     CLEAR     50  25  37 W8        29.85S
PIPESTONE      CLOUDY    45  25  45 SW7       29.88F
REDWOOD FALLS  CLEAR     50  23  34 SW12      29.87F
WINDOM         CLEAR     46  25  42 SW10      29.90F
WORTHINGTON    CLEAR     46  23  40 SW12      29.91F
$$

IAZ001>003-012>014-020>022-031-032-NEZ013-014-SDZ071-192300-
NORTHWEST IOWA

CITY           SKY/WX    TMP DP  RH WIND       PRES   REMARKS
CHEROKEE       CLEAR     49  29  47 S9        29.94F
DENISON        CLEAR     50  28  43 SW13G18   29.99S
ESTHERVILLE    CLEAR     45  26  47 SW10      29.93F
LE MARS        CLOUDY    54  25  32 SW8G15    29.92F
ORANGE CITY    CLOUDY    52  27  37 SW10      29.92F
SHELDON        CLOUDY    48  27  43 S9        29.90F
SIOUX CITY     CLEAR     53  25  33 SW15      29.93F
SPENCER        CLEAR     47  26  44 SW9       29.94F
STORM LAKE     CLEAR     48  27  43 SW14      29.95F
$$

ABBREVIATIONS USED IN REMARKS
   TC - TEMPERATURE IN CELSIUS
  WCI - WIND CHILL INDEX
   HX - HEAT INDEX
  VSB - VISIBILITY





USA.gov is the U.S. government's official web portal to all federal, state and local government web resources and services.